Content
SEND FEEDBACK

Daily
Averages
Monthly
Summary
United States of America

BAYSIDE, NEW YORK


Home > North America > United States > New York
Elevation: 11 feet     Latitude: 40 46N     Longitude: 073 54W

WEATHER
 
SELECT A DAY
Number of Records: 193,931;   Date Range: 1/1/95 - 10/21/14
 
SHARE

PRINT THIS DATA

[ ← Previous Day ]
WEATHER ALMANAC - JANUARY 17, 2013
[ Next Day → ]
[ °C ]   °F
Weather ElementAverageHighLow
Temperature40.5 °F43 °F (12:51 pm)36 °F (11:51 pm)
Dewpoint25.9 °F30.2 °F (1:51 am)23 °F (10:51 pm)
Humidity56.3 %70 % (1:51 am)49 % (2:51 pm)
Barometer30.02 in30.09 in (6:51 pm)29.92 in (1:51 am)
Wind Speed10.8 mph17.3 mph (11:51 am)
Wind Gust21.9 mph (10:51 am)
Weather ElementAverage
Visibility10 mi
Wind DirectionW (268.7 °)

Weather ElementTotal
Precipitation---
Heating Degree Days25.5 (Base 65)
Averaged from 23 records on January 17, 2013
WEATHER CONDITIONS BREAKOUT
WIND DIRECTION BREAKOUT
WEATHER BY HOUR - JANUARY 17, 2013
[ °C ]   °F
Local TimeTemperatureDewpointHumidityBarometerVisibilityWind DirectionWind SpeedGust SpeedPrecipitationEventsConditions
1:51 AM39.2 °F30.2 °F70 %29.92 in10.0 miWSW (250°)3.5 mphOvercast
2:51 AM39.9 °F28.9 °F65 %29.94 in10.0 miWSW (250°)8.1 mphOvercast
3:51 AM41.0 °F28.0 °F60 %29.92 in10.0 miWSW (250°)11.5 mphOvercast
4:51 AM39.9 °F28.0 °F63 %29.92 in10.0 miWest (280°)10.4 mph18.4 mphOvercast
5:51 AM39.9 °F27.0 °F60 %29.96 in10.0 miWNW (290°)11.5 mphOvercast
6:51 AM39.9 °F26.1 °F58 %29.98 in10.0 miWNW (300°)12.7 mphMostly Cloudy
7:51 AM39.9 °F26.1 °F58 %30.01 in10.0 miNW (310°)15.0 mphMostly Cloudy
8:51 AM39.9 °F26.1 °F58 %30.05 in10.0 miNW (310°)11.5 mphMostly Cloudy
9:51 AM41.0 °F26.1 °F55 %30.06 in10.0 miNW (310°)13.8 mphMostly Cloudy
10:51 AM41.0 °F26.1 °F55 %30.06 in10.0 miNW (310°)13.8 mph21.9 mphMostly Cloudy
11:51 AM42.1 °F26.1 °F53 %30.05 in10.0 miWNW (300°)17.3 mphMostly Cloudy
12:51 PM43.0 °F27.0 °F53 %30.04 in10.0 miNW (310°)12.7 mphMostly Cloudy
1:51 PM43.0 °F26.1 °F51 %30.04 in10.0 miNW (320°)11.5 mphMostly Cloudy
2:51 PM43.0 °F25.0 °F49 %30.04 in10.0 miNW (320°)13.8 mphMostly Cloudy
3:51 PM42.1 °F25.0 °F51 %30.05 in10.0 miNorth (350°)8.1 mphMostly Cloudy
4:51 PM42.1 °F26.1 °F53 %30.07 in10.0 miNNW (330°)8.1 mphMostly Cloudy
5:51 PM41.0 °F25.0 °F53 %30.06 in10.0 miNW (320°)8.1 mphOvercast
6:51 PM41.0 °F24.1 °F51 %30.09 in10.0 miNW (310°)8.1 mphOvercast
7:51 PM41.0 °F24.1 °F51 %30.08 in10.0 miNNW (330°)8.1 mphOvercast
8:51 PM39.9 °F24.1 °F53 %30.05 in10.0 miNorth (360°)11.5 mphOvercast
9:51 PM37.9 °F25.0 °F60 %30.06 in10.0 miNorth (10°)10.4 mphOvercast
10:51 PM37.0 °F23.0 °F57 %30.02 in10.0 miNorth (10°)11.5 mphOvercast
11:51 PM36.0 °F23.0 °F59 %30.04 in10.0 miNE (50°)8.1 mphOvercast
Hourly data recorded from KLGA, located miles away from Bayside, New York







STORIES FROM OUR PARTNERS